Mount Holly, NJ

10:07 PM EST on December 10, 2019 (GMT -0500)
South Jersey Regional

Weather History for KVAY - August, 2019

Change the Weather History Date:

Friday, August 9, 2019

  Actual Average (WUND) Record (WUND)
Temperature  
Mean Temperature 76 °F -  
Max Temperature 87 °F - - (-1)
Min Temperature 64 °F - - (-1)
Cooling Degree Days 12    
Growing Degree Days 26 (Base 50)    
Moisture  
Dew Point 62 °F    
Average Humidity 65    
Maximum Humidity 90    
Minimum Humidity 35    
Precipitation  
Precipitation 0.00 in - - ()
Sea Level Pressure  
Sea Level Pressure 29.77 in    
Wind  
Wind Speed 3 mph (WNW)    
Max Wind Speed 12 mph    
Max Gust Speed 21 mph    
Visibility 10 miles    
Events      
Averages and records for this station are not official NWS values.
T = Trace of Precipitation, MM = Missing Value Source: NWS Daily Summary

Daily Weather History Graph

Daily Weather History Graph

Search for Another Location

Airport or City:

Astronomy

Aug. 09, 2019 Rise Set
Actual Time 6:05 AM EDT 8:04 PM EDT
Civil Twilight 5:35 AM EDT 8:33 PM EDT
Nautical Twilight 4:59 AM EDT 9:09 PM EDT
Astronomical Twilight 4:20 AM EDT 9:48 PM EDT
Moon 3:42 PM EDT (8/9) 1:01 AM EDT (8/9)
Length of Visible Light 14h 57m
Length of Day
13h 58m
Waxing Gibbous, 70% of the Moon is Illuminated
Aug 9
Waxing Gibbous
Aug 15
Full
Aug 23
Last Quarter
Aug 30
New
Sep 5
First Quarter

Hourly Weather History & Observations

Time (EDT) Temp. Heat Index Dew Point Humidity Pressure Visibility Wind Dir Wind Speed Gust Speed Precip Events Conditions
12:54 AM 71.1 °F - 64.0 °F 78% 29.74 in 10.0 mi Calm Calm - N/A   Clear
1:54 AM 69.1 °F - 64.9 °F 87% 29.74 in 10.0 mi Calm Calm - N/A   Clear
2:54 AM 72.0 °F - 64.9 °F 78% 29.74 in 10.0 mi West 3.5 mph - N/A   Mostly Cloudy
3:54 AM 71.1 °F - 64.9 °F 81% 29.75 in 10.0 mi West 4.6 mph - N/A   Scattered Clouds
4:54 AM 70.0 °F - 64.0 °F 81% 29.76 in 10.0 mi Calm Calm - N/A   Clear
5:54 AM 66.9 °F - 64.0 °F 90% 29.77 in 10.0 mi Calm Calm - N/A   Clear
6:54 AM 70.0 °F - 64.0 °F 81% 29.78 in 10.0 mi NW 3.5 mph - N/A   Clear
7:54 AM 73.9 °F - 64.9 °F 73% 29.79 in 10.0 mi NW 3.5 mph - N/A   Clear
8:54 AM 75.9 °F - 64.9 °F 69% 29.80 in 10.0 mi NNW 5.8 mph - N/A   Clear
10:54 AM 82.0 °F 83.4 °F 64.0 °F 54% 29.79 in 10.0 mi Variable 3.5 mph - N/A   Clear
12:54 PM 84.9 °F 84.8 °F 60.1 °F 43% 29.77 in 10.0 mi West 8.1 mph - N/A   Scattered Clouds
1:54 PM 84.9 °F 84.4 °F 59.0 °F 41% 29.76 in 10.0 mi West 9.2 mph - N/A   Mostly Cloudy
2:54 PM 87.1 °F 86.1 °F 57.9 °F 37% 29.74 in 10.0 mi West 9.2 mph - N/A   Clear
3:54 PM 86.0 °F 84.5 °F 55.0 °F 35% 29.73 in 10.0 mi WNW 11.5 mph 20.7 mph N/A   Partly Cloudy
4:54 PM 87.1 °F 85.7 °F 55.9 °F 35% 29.73 in 10.0 mi Variable 4.6 mph - N/A   Clear
5:54 PM 84.9 °F 85.4 °F 62.1 °F 46% 29.74 in 10.0 mi NNW 4.6 mph - N/A   Scattered Clouds
6:54 PM 82.0 °F 83.0 °F 62.1 °F 51% 29.75 in 10.0 mi North 5.8 mph - N/A   Clear
7:54 PM 79.0 °F - 60.1 °F 52% 29.76 in 10.0 mi NNW 4.6 mph - N/A   Clear
8:54 PM 72.0 °F - 63.0 °F 73% 29.78 in 10.0 mi Calm Calm - N/A   Clear
9:54 PM 69.1 °F - 63.0 °F 81% 29.81 in 10.0 mi Calm Calm - N/A   Clear
10:54 PM 66.9 °F - 62.1 °F 84% 29.81 in 10.0 mi Calm Calm - N/A   Clear
11:54 PM 64.9 °F - 62.1 °F 90% 29.82 in 10.0 mi Calm Calm - N/A   Clear